DateTimeUTC,F1_A11,F1_S11,BsB_S11,BsG_S11,BsR_S11,BbsB_S11,BbsG_S11,BbsR_S11,BaB_A11,BaG_A11,BaR_A11,Tu_S11,T_S11,Uu_S11,U_S11,P_S11,T1_A11
2021-05-11T13:00:00Z,00000200,21000000,,,,,,,-000.16,0000.04,-000.31,16.2,22.7,,00.0,0667.4,30.8
2021-05-11T13:01:00Z,00000200,21000000,,,,,,,0000.22,-000.19,0000.17,16.2,22.7,,00.0,0667.4,30.8
2021-05-11T13:02:00Z,00000200,21000000,,,,,,,0000.11,-000.05,0000.07,16.2,22.7,,00.0,0667.4,30.8
2021-05-11T13:03:00Z,00000200,61000000,,,,,,,0001.49,0002.25,0001.34,16.2,22.7,,00.0,0667.4,30.8
2021-05-11T13:04:00Z,00000200,41000000,0001.09,0000.84,0000.80,-000.21,0000.22,0000.36,0001.38,0000.71,0001.07,16.3,22.5,,00.0,0668.3,30.9
2021-05-11T13:05:00Z,00000200,01000000,0001.26,0001.22,0000.60,0000.53,0000.22,0000.03,0008.23,0007.61,0005.87,16.4,22.5,,00.0,0668.4,30.9
2021-05-11T13:06:00Z,00000200,01000000,0002.67,0001.46,0001.15,0000.22,0000.51,0000.33,0019.90,0018.37,0015.14,16.4,22.5,,00.0,0668.4,30.9
2021-05-11T13:07:00Z,00000200,01000000,0001.72,0001.24,0000.84,-000.22,0000.50,0000.17,0008.79,0008.51,0006.54,16.5,22.5,,00.0,0668.4,30.8
2021-05-11T13:08:00Z,00000200,01000000,0002.67,0002.22,0001.32,0000.66,0000.77,0000.37,0023.46,0021.71,0017.72,16.5,22.5,,00.0,0668.4,30.8
2021-05-11T13:09:00Z,00000200,01000000,0002.76,0002.44,0001.41,0000.81,0000.58,0000.18,0027.89,0025.58,0020.51,16.5,22.5,,00.0,0668.4,30.9
2021-05-11T13:10:00Z,00000200,01000000,0003.50,0002.49,0001.82,0000.54,0000.94,0000.32,0034.17,0031.68,0025.30,16.5,22.5,,00.0,0668.4,30.9
2021-05-11T13:11:00Z,00000200,01000000,0004.08,0002.78,0001.81,0001.21,0000.83,0000.41,0040.67,0037.57,0030.60,16.5,22.5,,00.0,0668.5,30.8
2021-05-11T13:12:00Z,00000200,01000000,0004.27,0002.88,0001.46,0000.75,0000.60,0000.34,0035.16,0032.64,0026.42,16.6,22.5,,00.0,0668.5,30.8
2021-05-11T13:13:00Z,00000200,01000000,0004.10,0003.07,0002.01,0001.01,0000.65,0000.44,0038.09,0035.50,0028.70,16.6,22.6,,00.0,0668.5,30.9
2021-05-11T13:14:00Z,00000200,01000000,0004.70,0003.70,0002.24,0000.81,0001.09,0000.36,0048.91,0045.19,0036.35,16.7,22.6,,00.0,0668.5,30.9
2021-05-11T13:15:00Z,00000200,01000000,0005.13,0003.46,0002.38,0000.85,0000.92,0000.47,0051.59,0048.03,0038.91,16.7,22.6,,00.0,0668.5,30.9
2021-05-11T13:16:00Z,00000200,01000000,0003.36,0002.19,0001.59,0000.72,0000.80,0000.23,0035.63,0032.93,0026.16,16.7,22.7,,00.0,0668.5,30.9
2021-05-11T13:17:00Z,00000200,01000000,0003.94,0002.59,0001.49,0000.37,0000.78,0000.48,0035.15,0032.66,0026.94,16.8,22.7,,00.0,0668.5,30.9
2021-05-11T13:18:00Z,00000200,01000000,0005.01,0003.53,0002.38,0000.22,0000.99,0000.47,0044.95,0041.41,0033.03,16.8,22.7,,00.0,0668.5,30.8
2021-05-11T13:19:00Z,00000200,01000000,0004.30,0003.16,0002.09,0001.88,0000.98,0000.86,0044.34,0041.16,0033.22,16.8,22.7,,00.0,0668.5,30.8
2021-05-11T13:20:00Z,00000200,01000000,0004.60,0003.61,0002.37,0001.07,0000.98,0000.59,0049.72,0046.10,0037.52,16.8,22.7,,00.0,0668.5,30.8
2021-05-11T13:21:00Z,00000200,01000000,0004.26,0003.24,0002.17,0001.06,0000.92,0000.48,0045.74,0042.95,0034.75,16.7,22.7,,00.0,0668.5,30.8
2021-05-11T13:22:00Z,00000200,01000000,0002.66,0001.90,0001.19,0000.61,0000.46,0000.17,0022.94,0021.38,0016.90,16.8,22.7,,00.0,0668.5,30.8
2021-05-11T13:23:00Z,00000200,01000000,0001.57,0001.43,0000.85,0000.10,0000.31,0000.48,0016.52,0015.26,0012.36,16.7,22.7,,00.0,0668.5,30.9
2021-05-11T13:24:00Z,00000200,01000000,0003.05,0002.24,0001.53,0000.56,0000.81,0000.24,0025.61,0023.45,0018.99,16.8,22.7,,00.0,0668.5,30.9
2021-05-11T13:25:00Z,00000200,01000000,0002.78,0001.74,0001.40,0000.87,0000.50,0000.27,0022.49,0020.81,0016.76,16.8,22.7,,00.0,0668.5,30.9
2021-05-11T13:26:00Z,00000200,01000000,0002.84,0001.70,0001.12,0000.70,0000.44,0000.22,0021.54,0020.09,0016.49,16.8,22.7,,00.0,0668.6,30.8
2021-05-11T13:27:00Z,00000200,01000000,0002.40,0001.81,0001.12,0000.46,0000.41,0000.31,0019.66,0018.21,0014.62,16.8,22.7,,00.0,0668.6,30.8
2021-05-11T13:28:00Z,00000200,01000000,0003.12,0001.78,0001.18,0000.37,0000.72,0000.24,0022.78,0020.64,0016.86,16.8,22.7,,00.0,0668.5,30.9
2021-05-11T13:29:00Z,00000200,01000000,0002.97,0001.71,0001.21,0000.36,0000.75,0000.29,0020.85,0019.88,0015.81,16.8,22.7,,00.0,0668.6,30.9
2021-05-11T13:30:00Z,00000200,01000000,0001.81,0001.38,0000.85,0000.71,0000.69,0000.24,0014.47,0013.51,0010.96,16.9,22.8,,00.0,0668.6,30.9
2021-05-11T13:31:00Z,00000200,01000000,0001.75,0001.59,0001.07,0000.27,0000.78,0000.17,0015.89,0014.89,0012.02,16.9,22.8,,00.0,0668.6,30.9
2021-05-11T13:32:00Z,00000200,01000000,0001.35,0001.28,0000.90,0000.09,0000.33,0000.09,0013.58,0012.81,0010.54,16.9,22.8,,00.0,0668.6,30.9
2021-05-11T13:33:00Z,00000200,01000000,0001.37,0001.43,0000.94,-000.07,0000.45,0000.21,0012.93,0011.74,0009.13,16.9,22.8,,00.0,0668.6,30.9
2021-05-11T13:34:00Z,00000200,01000000,0001.78,0001.21,0000.92,0000.17,0000.34,0000.09,0013.84,0012.28,0010.55,16.9,22.8,,00.0,0668.5,30.9
2021-05-11T13:35:00Z,00000200,01000000,0001.68,0001.88,0001.44,0000.13,0000.43,0000.22,0019.30,0018.07,0014.22,16.9,22.8,,00.0,0668.5,30.9
2021-05-11T13:36:00Z,00000200,01000000,0002.28,0001.60,0001.06,0000.77,0000.36,0000.47,0015.05,0013.92,0011.51,16.9,22.8,,00.0,0668.5,30.9
2021-05-11T13:37:00Z,00000200,01000000,0001.00,0001.32,0000.58,0000.47,0000.52,0000.15,0008.86,0008.19,0006.53,16.9,22.8,,00.0,0668.5,30.9
2021-05-11T13:38:00Z,00000200,01000000,0001.14,0000.93,0000.51,0000.30,0000.28,0000.02,0007.60,0007.41,0005.46,16.9,22.8,,00.0,0668.5,30.9
2021-05-11T13:39:00Z,00000200,01000000,0001.51,0000.97,0000.71,0000.56,0000.23,0000.13,0009.55,0009.06,0007.42,16.9,22.8,,00.0,0668.5,30.9
2021-05-11T13:40:00Z,00000200,01000000,0001.68,0001.07,0000.97,0000.83,0000.16,-000.09,0009.01,0008.45,0006.60,16.9,22.8,,00.0,0668.5,30.9
2021-05-11T13:41:00Z,00000200,01000000,0001.04,0000.63,0000.82,-000.12,0000.40,0000.18,0003.83,0002.84,0002.61,16.9,22.8,,00.0,0668.5,30.9
2021-05-11T13:42:00Z,00000200,01000000,0000.94,0000.37,0000.21,-000.04,0000.16,0000.02,0001.30,0001.88,0001.27,16.9,22.8,,00.0,0668.5,30.9
2021-05-11T13:43:00Z,00000200,01000000,0001.12,0000.24,0000.58,-000.33,0000.19,-000.08,0001.78,0001.32,0001.09,16.9,22.8,,00.0,0668.5,30.9
2021-05-11T13:44:00Z,00000200,01000000,0001.22,0000.52,0000.42,0000.03,0000.36,0000.38,0003.52,0002.94,0002.19,16.9,22.8,,00.0,0668.5,30.9
2021-05-11T13:45:00Z,00000200,01000000,0001.07,0000.60,0000.45,0000.28,0000.38,0000.23,0003.68,0003.54,0002.78,17.0,22.8,,00.0,0668.5,30.9
2021-05-11T13:46:00Z,00000200,01000000,0001.18,0000.61,0000.47,0000.46,0000.32,0000.03,0003.29,0003.20,0002.69,16.9,22.8,,00.0,0668.5,30.9
2021-05-11T13:47:00Z,00000200,01000000,0001.19,0000.94,0000.75,-000.54,0000.34,0000.30,0002.01,0001.69,0001.40,16.9,22.8,,00.0,0668.5,30.9
2021-05-11T13:48:00Z,00000200,01000000,0000.58,0000.61,0000.42,0000.11,0000.33,-000.00,0002.11,0002.03,0001.82,16.9,22.8,,00.0,0668.5,30.9
2021-05-11T13:49:00Z,00000200,01000000,0001.73,0000.60,0000.37,0000.20,0000.36,0000.25,0003.71,0003.39,0002.56,16.9,22.8,,00.0,0668.6,30.9
2021-05-11T13:50:00Z,00000200,01000000,0000.93,0000.53,0000.36,0000.00,0000.22,-000.04,0000.86,0001.21,0000.50,16.9,22.8,,00.0,0668.6,30.9
2021-05-11T13:51:00Z,00000200,01000000,0000.91,0000.59,0000.05,0000.59,-000.07,-000.12,0001.30,0000.98,0000.95,16.9,22.8,,00.0,0668.6,30.9
2021-05-11T13:52:00Z,00000200,01000000,0001.36,0000.54,0000.27,-000.05,0000.18,0000.31,0001.56,0001.09,0001.03,17.0,22.8,,00.0,0668.6,30.9
2021-05-11T13:53:00Z,00000200,01000000,0000.51,0000.38,0000.48,0000.11,0000.41,0000.10,0001.09,0001.11,0000.95,17.0,22.8,,00.0,0668.6,30.9
2021-05-11T13:54:00Z,00000200,01000000,0000.60,0000.43,0000.49,0000.35,0000.20,0000.14,0002.30,0002.09,0001.54,16.9,22.8,,00.0,0668.6,30.9
2021-05-11T13:55:00Z,00000200,01000000,0000.86,0000.64,0000.29,0000.79,0000.14,-000.11,0002.76,0002.65,0002.10,17.0,22.8,,00.0,0668.6,30.9
2021-05-11T13:56:00Z,00000200,01000000,0000.99,0000.24,0000.29,-000.19,0000.20,0000.29,0002.00,0001.76,0001.69,17.0,22.8,,00.0,0668.6,30.9
2021-05-11T13:57:00Z,00000200,41000000,,,,,,,0001.32,0001.16,0000.53,17.0,22.9,,00.0,0668.7,30.9
2021-05-11T13:58:00Z,00000200,61000000,,,,,,,-000.33,0000.07,-000.08,16.8,23.0,,00.0,0667.7,30.9
2021-05-11T13:59:00Z,00000200,21000000,,,,,,,0000.47,0000.03,0000.47,16.8,23.0,,00.0,0667.6,30.9
